Location: Heppenheim
(49.6410°N, 8.6370°E)
Time: 16:46:08
(UTC+02:00)

ISS - Pass Details

Date: 13 May 2026
Orbit: 414 x 424 km, 51.6° (Epoch: 21 May)

Event Time Altitude Azimuth Distance (km) Brightness Sun altitude
Rises 00:07:12 0° 280° (W) 2,353 0.5 -20.1°
Reaches altitude 10° 00:09:18 10° 284° (WNW) 1,491 -0.6 -20.2°
Maximum altitude 00:12:37 62° 7° (N) 473 -3.4 -20.3°
Enters shadow 00:13:25 45° 64° (ENE) 582 -3.1 -20.4°
